Weather in Kolominskiye Grivy

Russia / Tomsk District     57°47′40″N   83°08′50″E
temp.,
°C
wind,
m/s
gust,
m/s
humid.,
%
clouds,
%
prec.,
mm/h
press.,
hPa
HPBL,
m
9 december, thu
thu901:00−18wsw379784 0.1 1035228
04:00−21wsw389848 0.0 1036173
07:00−21wsw3997100 0.0 1037210
10:00−18sw41195100 0.0 1037323
13:00−16sw41191100 0.0 1037369
16:00−14wsw51389100 0.0 1036523
19:00−14wsw51391100 0.0 1037461
22:00−14sw51590100 0.0 1037458
10 december, fri
fri1001:00−16sw51490100 0.0 1036415
04:00−14sw41293100 0.1 1036458
07:00−13sw4119299 0.4 1036468
10:00−13sw399483 0.1 1036365
13:00−12sw3793100 0.2 1036358
16:00−12sw379595 0.0 1037248
19:00−12ssw389687 0.1 1036246
22:00−10ssw41094100 0.3 1035353
11 december, sat
sat1101:00−9ssw41390100 0.4 1033435
04:00−9ssw51580100 0.0 1031439
07:00−9ssw51675100 0.0 1029485
10:00−8ssw61872100 0.0 1027561
13:00−7sw61772100 0.0 1025699
16:00−7sw51476100 0.0 1023665
19:00−8sw41183100 0.0 1022566
22:00−9wsw3993100 0.1 1021485
12 december, sun
sun1201:00−11w3895100 0.1 1021325
04:00−15wsw279894 0.1 1021147
07:00−18w279835 0.1 1021127
10:00−20w279955 0.0 1022138
13:00−17wnw279467 0.0 1022270
16:00−17wnw2795100 0.0 1023378
19:00−20w279978 0.1 1024171
22:00−21w269985 0.0 1026130
13 december, mon
mon1301:00−21w269975 0.1 1026139
04:00−21wsw2699100 0.0 1027149
07:00−21sw259969 0.1 1027136
10:00−20wsw2497100 0.0 1027160
13:00−17sw1290100 0.0 1026296
16:00−16s129593 0.2 1026223
19:00−17ese119894 0.3 102622
22:00−17nne119999 0.1 102532